TimeEST,TemperatureF,Dew PointF,Humidity,Sea Level PressureIn,VisibilityMPH,Wind Direction,Wind SpeedMPH,Gust SpeedMPH,PrecipitationIn,Events,Conditions,WindDirDegrees,DateUTC
12:53 AM,48.0,23.0,37,29.92,10.0,South,12.7,19.6,N/A,,Clear,180,2013-02-19 05:53:00
1:53 AM,48.0,21.9,36,29.88,10.0,South,12.7,20.7,N/A,,Clear,170,2013-02-19 06:53:00
2:53 AM,46.9,21.9,37,29.88,10.0,SW,10.4,-,N/A,,Mostly Cloudy,230,2013-02-19 07:53:00
3:53 AM,45.0,30.0,56,29.85,10.0,SSW,3.5,-,0.00,,Overcast,200,2013-02-19 08:53:00
4:53 AM,46.9,28.9,50,29.82,10.0,SSW,11.5,21.9,0.01,,Overcast,200,2013-02-19 09:53:00
5:53 AM,44.1,34.0,68,29.82,10.0,South,8.1,26.5,0.00,Rain,Light Rain,180,2013-02-19 10:53:00
6:15 AM,42.8,35.6,76,29.80,8.0,South,11.5,24.2,0.01,Rain,Light Rain,180,2013-02-19 11:15:00
6:38 AM,41.0,35.6,81,29.79,10.0,South,6.9,16.1,0.02,Rain,Light Rain,180,2013-02-19 11:38:00
6:53 AM,41.0,37.0,86,29.79,10.0,South,5.8,18.4,0.03,Rain,Light Rain,180,2013-02-19 11:53:00
7:53 AM,41.0,36.0,82,29.78,10.0,South,6.9,19.6,0.01,Rain,Light Rain,190,2013-02-19 12:53:00
8:11 AM,41.0,35.6,81,29.77,10.0,Variable,6.9,-,0.00,Rain,Light Rain,0,2013-02-19 13:11:00
8:53 AM,41.0,37.0,86,29.77,10.0,South,6.9,18.4,0.01,Rain,Light Rain,190,2013-02-19 13:53:00
9:53 AM,42.1,37.0,82,29.75,10.0,South,8.1,18.4,0.01,,Overcast,190,2013-02-19 14:53:00
10:53 AM,44.1,37.0,76,29.75,10.0,SSW,11.5,24.2,N/A,,Overcast,210,2013-02-19 15:53:00
1:05 PM,39.2,35.6,87,29.71,2.5,WSW,8.1,20.7,0.03,Rain,Light Rain,240,2013-02-19 18:05:00
1:12 PM,39.2,35.6,87,29.71,10.0,West,11.5,18.4,0.03,Rain,Light Rain,260,2013-02-19 18:12:00
2:10 PM,37.4,33.8,87,29.74,10.0,West,9.2,-,0.01,,Overcast,270,2013-02-19 19:10:00
2:30 PM,37.4,32.0,81,29.75,10.0,West,10.4,20.7,0.01,,Overcast,260,2013-02-19 19:30:00
2:53 PM,39.0,28.9,67,29.78,10.0,WSW,9.2,24.2,0.01,,Overcast,240,2013-02-19 19:53:00
3:53 PM,39.0,27.0,62,29.78,10.0,WSW,10.4,17.3,N/A,,Mostly Cloudy,240,2013-02-19 20:53:00
4:53 PM,37.0,25.0,62,29.81,10.0,Variable,6.9,23.0,N/A,,Overcast,0,2013-02-19 21:53:00
5:53 PM,35.1,23.0,61,29.86,9.0,West,13.8,23.0,0.00,Snow,Light Snow,270,2013-02-19 22:53:00
7:40 PM,30.2,24.8,80,29.91,2.5,West,10.4,16.1,0.00,Snow,Light Snow,270,2013-02-20 00:40:00
7:53 PM,30.0,25.0,82,29.94,5.0,West,8.1,-,0.00,Snow,Light Snow,280,2013-02-20 00:53:00
8:07 PM,30.2,24.8,80,29.91,9.0,Variable,4.6,-,0.00,Snow,Light Snow,0,2013-02-20 01:07:00
8:46 PM,30.2,23.0,75,29.91,3.0,West,8.1,18.4,0.00,Snow,Light Snow,270,2013-02-20 01:46:00
8:53 PM,30.0,23.0,75,29.94,2.0,Variable,5.8,18.4,0.00,Snow,Light Snow,0,2013-02-20 01:53:00
9:01 PM,28.4,24.8,86,29.92,1.2,West,8.1,-,0.00,Snow,Light Snow,270,2013-02-20 02:01:00
9:42 PM,28.4,21.2,74,29.94,3.0,West,12.7,20.7,0.00,Snow,Light Snow,270,2013-02-20 02:42:00
9:49 PM,28.4,21.2,74,29.94,4.0,West,10.4,19.6,0.00,Snow,Light Snow,280,2013-02-20 02:49:00
9:53 PM,28.0,21.9,78,29.98,4.0,West,8.1,-,0.00,Snow,Light Snow,270,2013-02-20 02:53:00
10:08 PM,26.6,21.2,80,29.95,5.0,West,9.2,-,0.00,Snow,Light Snow,270,2013-02-20 03:08:00
10:25 PM,26.6,19.4,74,29.95,9.0,West,6.9,17.3,0.00,Snow,Light Snow,270,2013-02-20 03:25:00
10:53 PM,27.0,18.0,69,29.98,10.0,West,8.1,-,0.00,,Overcast,260,2013-02-20 03:53:00
11:40 PM,26.6,19.4,74,29.96,2.0,West,11.5,19.6,0.00,Snow,Light Snow,280,2013-02-20 04:40:00
11:53 PM,25.0,19.9,81,29.99,1.8,Variable,6.9,18.4,0.00,Snow,Light Snow,0,2013-02-20 04:53:00
11:58 PM,24.8,19.4,80,29.95,3.0,West,6.9,18.4,0.00,Snow,Light Snow,270,2013-02-20 04:58:00